This is the latest recevied weather packets stored in our database for station/object KD7CTY. If no packets are shown the sender has not sent any weather packets the latest 10 day(s).
| Time | Temp. | Humidity | Pressure | Rain* | Wind** | Luminosity | Snow |
|---|---|---|---|---|---|---|---|
| 1777861429 | 25° C | 36% | 1008.4 hPa | 0 mm | - | 41 W/m² | - |
| 1777861125 | 25.56° C | 36% | 1008.5 hPa | 0 mm | - | 44 W/m² | - |
| 1777860823 | 25.56° C | 35% | 1008.5 hPa | 0 mm | - | 55 W/m² | - |
| 1777860520 | 26.11° C | 35% | 1008.5 hPa | 0 mm | - | 41 W/m² | - |
| 1777860217 | 26.11° C | 35% | 1008.5 hPa | 0 mm | - | 93 W/m² | - |
| 1777859913 | 26.11° C | 36% | 1008.6 hPa | 0 mm | - | 45 W/m² | - |
| 1777859609 | 26.11° C | 35% | 1008.4 hPa | 0 mm | - | 122 W/m² | - |
| 1777859305 | 26.67° C | 35% | 1008.8 hPa | 0 mm | - | 48 W/m² | - |
| 1777859001 | 26.67° C | 35% | 1008.7 hPa | 0 mm | - | 149 W/m² | - |
| 1777858699 | 26.67° C | 34% | 1008.7 hPa | 0 mm | - | 168 W/m² | - |
| 1777858397 | 26.67° C | 34% | 1008.6 hPa | 0 mm | - | 56 W/m² | - |
| 1777858093 | 26.67° C | 34% | 1008.7 hPa | 0 mm | - | 192 W/m² | - |
| 1777857791 | 26.67° C | 34% | 1009 hPa | 0 mm | - | 213 W/m² | - |
| 1777857488 | 26.67° C | 37% | 1009.1 hPa | 0 mm | - | 235 W/m² | - |
| 1777857184 | 26.67° C | 36% | 1009.2 hPa | 0 mm | - | 62 W/m² | - |
| 1777856880 | 26.67° C | 35% | 1009 hPa | 0 mm | - | 66 W/m² | - |
| 1777856576 | 27.22° C | 34% | 1009 hPa | 0 mm | - | 281 W/m² | - |
| 1777856273 | 26.67° C | 35% | 1009.2 hPa | 0 mm | - | 304 W/m² | - |
| 1777855970 | 26.67° C | 34% | 1009.2 hPa | 0 mm | - | 326 W/m² | - |
| 1777855668 | 27.22° C | 35% | 1009 hPa | 0 mm | - | 344 W/m² | - |
| 1777855365 | 26.67° C | 36% | 1009.3 hPa | 0 mm | - | 360 W/m² | - |
| 1777855061 | 27.22° C | 35% | 1009.1 hPa | 0 mm | - | 376 W/m² | - |
| 1777854758 | 26.67° C | 34% | 1009.3 hPa | 0 mm | - | 398 W/m² | - |
| 1777854455 | 27.22° C | 35% | 1009.3 hPa | 0 mm | - | 415 W/m² | - |
| 1777854152 | 27.22° C | 40% | 1009.5 hPa | 0 mm | - | 424 W/m² | - |
* Rain latest hour (hover to see other rain measurements)
** Current wind speed in m/s (hover to see current wind gust speed)